カタログに戻る

SL-19 DEB

運用中UNKNOWN
NORAD 23488·DEBRIS·🇷🇺 Russia

打ち上げ Dec 26, 1994 から Baikonur Cosmodrome

Loading…

次のパス (今後24時間)

TLE

最新Source: Space-Track

元期: Sep 14, 2026, 13:30 UTC

1 23488U 94085L   26257.56286422 -.00001308  00000-0 -34248-1 0  9994
2 23488  65.0012 293.8871 0214220  98.1317  53.0505 11.29709788305029

AllMySatでSL-19 DEBをリアルタイム追跡

Download on the App Store